Weather History for LTCC - March, 2013

Change the Weather History Date:

Saturday, March 16, 2013

  Actual Average Record
Temperature  
Mean Temperature 64 °F -  
Max Temperature 75 °F 63 °F 75 °F (2013)
Min Temperature 53 °F 42 °F 28 °F (2004)
Degree Days  
Heating Degree Days 1    
Growing Degree Days 14 (Base 50)    
Moisture  
Dew Point 45 °F    
Average Humidity 49    
Maximum Humidity 77    
Minimum Humidity 29    
Precipitation  
Precipitation 0.00 in 0.10 in - ()
Sea Level Pressure  
Sea Level Pressure 29.78 in    
Wind  
Wind Speed 13 mph ()    
Max Wind Speed 36 mph    
Max Gust Speed 52 mph    
Visibility 6.4 miles    
Events Rain , Thunderstorm    
Averages and records for this station are not official NWS values.
T = Trace of Precipitation, MM = Missing Value Source: Averaged Metar Reports

Daily Weather History Graph

Daily Weather History Graph

Search for Another Location

Airport or City:

Trip Planner

Search our weather history database for the weather conditions in past years. The results will help you decide how hot, cold, wet, or windy it might be!

Date:

Astronomy

Mar. 16, 2013 Rise Set
Actual Time 5:29 AM EET 5:27 PM EET
Civil Twilight 5:02 AM EET 5:53 PM EET
Nautical Twilight 4:32 AM EET 6:24 PM EET
Astronomical Twilight 4:01 AM EET 6:55 PM EET
Moon 7:49 AM EET (3/16) 10:11 PM EET (3/16)
Length of Visible Light 12h 50m
Length of Day
11h 58m
Waxing Crescent, 21% of the Moon is Illuminated
Mar 16
Waxing Crescent
Mar 19
First Quarter
Mar 27
Full
Apr 3
Last Quarter
Apr 10
New

Hourly Weather History & Observations

Time (EET) Temp. Dew Point Humidity Pressure Visibility Wind Dir Wind Speed Gust Speed Precip Events Conditions
12:20 AM 57.2 °F 39.2 °F 51% 29.98 in 6.2 mi West 8.1 mph - N/A   Mostly Cloudy
12:39 AM 57.2 °F 44.6 °F 63% 29.95 in 6.2 mi SSE 4.6 mph - N/A Rain Light Rain Showers
12:50 AM 59.0 °F 42.8 °F 55% 29.98 in 6.2 mi ESE 6.9 mph - N/A Rain Light Rain Showers
1:20 AM 59.0 °F 48.2 °F 67% 29.92 in 6.2 mi SE 9.2 mph - N/A Rain Light Rain Showers
1:38 AM 62.6 °F 46.4 °F 55% 29.86 in 6.2 mi SE 29.9 mph - N/A Rain , Thunderstorm Light Thunderstorms and Rain
1:50 AM 64.4 °F 42.8 °F 45% 29.80 in 6.2 mi SE 35.7 mph 51.8 mph N/A Rain , Thunderstorm Light Thunderstorms and Rain
2:00 AM 64 °F 44 °F 38% 29.73 in 12 mi SE 35.7 mph - - Rain , Thunderstorm Thunderstorms and Rain
2:20 AM 66.2 °F 42.8 °F 43% 29.86 in 6.2 mi SE 24.2 mph - N/A Rain , Thunderstorm Light Thunderstorms and Rain
2:38 AM 62.6 °F 46.4 °F 55% 29.86 in 6.2 mi SE 29.9 mph - N/A Rain , Thunderstorm Light Thunderstorms and Rain
2:50 AM 68.0 °F 41.0 °F 37% 29.86 in 6.2 mi SE 21.9 mph - N/A Rain , Thunderstorm Light Thunderstorms and Rain
3:15 AM 68.0 °F 39.2 °F 35% 29.86 in 6.2 mi SE 21.9 mph 33.4 mph N/A   Mostly Cloudy
3:20 AM 66.2 °F 39.2 °F 37% 29.86 in 6.2 mi SE 23.0 mph 34.5 mph N/A   Scattered Clouds
3:40 AM 68.0 °F 39.2 °F 35% 29.83 in 6.2 mi SSE 27.6 mph 41.4 mph N/A Rain , Thunderstorm Light Thunderstorms and Rain
3:50 AM 68.0 °F 39.2 °F 35% 29.86 in 6.2 mi SE 24.2 mph - N/A Rain , Thunderstorm Light Thunderstorms and Rain
4:20 AM 66.2 °F 41.0 °F 40% 29.80 in 6.2 mi SE 24.2 mph - N/A Rain , Thunderstorm Light Thunderstorms and Rain
4:50 AM 66.2 °F 41.0 °F 40% 29.83 in 6.2 mi SE 13.8 mph - N/A   Mostly Cloudy
5:20 AM 62.6 °F 41.0 °F 45% 29.80 in 6.2 mi ESE 11.5 mph - N/A   Scattered Clouds
5:50 AM 60.8 °F 42.8 °F 52% 29.83 in 6.2 mi SE 11.5 mph - N/A   Scattered Clouds
6:20 AM 60.8 °F 42.8 °F 52% 29.80 in 6.2 mi ESE 9.2 mph - N/A   Mostly Cloudy
6:50 AM 66.2 °F 44.6 °F 46% 29.80 in 6.2 mi SE 11.5 mph - N/A   Mostly Cloudy
7:20 AM 66.2 °F 44.6 °F 46% 29.80 in 6.2 mi Variable 2.3 mph - N/A   Mostly Cloudy
7:50 AM 66.2 °F 46.4 °F 49% 29.80 in 6.2 mi East 5.8 mph - N/A   Mostly Cloudy
8:00 AM 66 °F 46 °F 37% 29.73 in 12 mi East 5.8 mph - -   Partly Cloudy
8:20 AM 66.2 °F 48.2 °F 52% 29.80 in 6.2 mi NE 5.8 mph - N/A   Mostly Cloudy
8:50 AM 68.0 °F 48.2 °F 49% 29.77 in 6.2 mi NE 4.6 mph - N/A   Mostly Cloudy
9:20 AM 68.0 °F 50.0 °F 52% 29.77 in 6.2 mi NNE 4.6 mph - N/A   Mostly Cloudy
9:50 AM 69.8 °F 50.0 °F 49% 29.80 in 6.2 mi ENE 5.8 mph - N/A   Mostly Cloudy
10:20 AM 71.6 °F 41.0 °F 33% 29.77 in 6.2 mi ESE 16.1 mph - N/A   Mostly Cloudy
10:50 AM 73.4 °F 42.8 °F 33% 29.80 in 6.2 mi ESE 18.4 mph - N/A   Mostly Cloudy
11:20 AM 75.2 °F 50.0 °F 41% 29.77 in 6.2 mi SE 13.8 mph - N/A   Mostly Cloudy
11:50 AM 75.2 °F 46.4 °F 36% 29.77 in 6.2 mi SE 17.3 mph - N/A   Mostly Cloudy
12:20 PM 75.2 °F 46.4 °F 36% 29.77 in 6.2 mi SE 16.1 mph - N/A   Mostly Cloudy
12:50 PM 73.4 °F 50.0 °F 44% 29.77 in 6.2 mi SE 10.4 mph - N/A   Mostly Cloudy
1:20 PM 69.8 °F 44.6 °F 40% 29.77 in 6.2 mi ESE 17.3 mph - N/A   Mostly Cloudy
1:50 PM 69.8 °F 46.4 °F 43% 29.74 in 6.2 mi ESE 13.8 mph - N/A   Mostly Cloudy
2:00 PM 70 °F 45 °F 29% 29.68 in 6 mi ESE 13.8 mph - -   Partly Cloudy
2:20 PM 69.8 °F 48.2 °F 46% 29.77 in 6.2 mi South 8.1 mph - N/A   Mostly Cloudy
2:50 PM 69.8 °F 42.8 °F 38% 29.74 in 6.2 mi SSE 10.4 mph - N/A   Mostly Cloudy
3:20 PM 69.8 °F 44.6 °F 40% 29.74 in 6.2 mi South 12.7 mph - N/A   Mostly Cloudy
3:50 PM 68.0 °F 42.8 °F 40% 29.74 in 6.2 mi SSE 16.1 mph - N/A   Mostly Cloudy
4:20 PM 66.2 °F 44.6 °F 46% 29.74 in 6.2 mi SSE 10.4 mph - N/A   Mostly Cloudy
4:50 PM 64.4 °F 46.4 °F 52% 29.74 in 6.2 mi SSE 8.1 mph - N/A   Mostly Cloudy
5:20 PM 64.4 °F 44.6 °F 49% 29.74 in 6.2 mi SSE 13.8 mph - N/A   Mostly Cloudy
5:50 PM 64.4 °F 42.8 °F 45% 29.74 in 6.2 mi SE 11.5 mph - N/A   Mostly Cloudy
6:20 PM 64.4 °F 44.6 °F 49% 29.74 in 6.2 mi SE 8.1 mph - N/A   Mostly Cloudy
6:50 PM 62.6 °F 46.4 °F 55% 29.74 in 6.2 mi Calm Calm - N/A   Mostly Cloudy
7:20 PM 60.8 °F 46.4 °F 59% 29.74 in 6.2 mi Variable 1.2 mph - N/A   Mostly Cloudy
7:50 PM 60.8 °F 46.4 °F 59% 29.74 in 6.2 mi ENE 9.2 mph - N/A   Mostly Cloudy
8:00 PM 61 °F 46 °F 48% 29.68 in 6 mi ENE 9.2 mph - -   Partly Cloudy
8:20 PM 59.0 °F 48.2 °F 67% 29.77 in 6.2 mi Calm Calm - N/A   Mostly Cloudy
8:50 PM 59.0 °F 46.4 °F 63% 29.74 in 6.2 mi North 4.6 mph - N/A   Mostly Cloudy
9:20 PM 60.8 °F 48.2 °F 63% 29.74 in 6.2 mi ESE 4.6 mph - N/A   Mostly Cloudy
9:50 PM 59.0 °F 48.2 °F 67% 29.71 in 6.2 mi East 9.2 mph - N/A   Mostly Cloudy
10:20 PM 60.8 °F 46.4 °F 59% 29.74 in 6.2 mi SSE 13.8 mph - N/A   Mostly Cloudy
10:50 PM 60.8 °F 48.2 °F 63% 29.71 in 6.2 mi SSE 15.0 mph - N/A Rain Light Rain Showers
11:08 PM 59.0 °F 50.0 °F 72% 29.71 in 6.2 mi SE 12.7 mph - N/A   Mostly Cloudy
11:20 PM 59.0 °F 50.0 °F 72% 29.71 in 6.2 mi SSE 11.5 mph - N/A   Mostly Cloudy
11:50 PM 57.2 °F 50.0 °F 77% 29.71 in 6.2 mi SSE 11.5 mph - N/A   Mostly Cloudy